TimeMST,TemperatureF,Dew PointF,Humidity,Sea Level PressureIn,VisibilityMPH,Wind Direction,Wind SpeedMPH,Gust SpeedMPH,PrecipitationIn,Events,Conditions,WindDirDegrees,DateUTC
12:53 AM,39.9,32.0,73,30.08,10.0,North,8.1,-,N/A,,Overcast,350,2012-11-17 07:53:00
1:53 AM,37.0,32.0,82,30.06,10.0,NW,3.5,-,N/A,,Overcast,310,2012-11-17 08:53:00
2:53 AM,36.0,32.0,86,30.07,10.0,North,6.9,-,N/A,,Clear,360,2012-11-17 09:53:00
3:53 AM,35.1,32.0,89,30.06,9.0,NNW,4.6,-,N/A,,Clear,340,2012-11-17 10:53:00
4:53 AM,34.0,30.9,89,30.06,9.0,Calm,Calm,-,N/A,,Mostly Cloudy,0,2012-11-17 11:53:00
5:53 AM,35.1,32.0,89,30.06,10.0,NNW,5.8,-,N/A,,Overcast,330,2012-11-17 12:53:00
6:53 AM,35.1,32.0,89,30.06,10.0,Calm,Calm,-,N/A,,Overcast,0,2012-11-17 13:53:00
7:53 AM,36.0,33.1,89,30.08,10.0,Calm,Calm,-,N/A,,Mostly Cloudy,0,2012-11-17 14:53:00
8:53 AM,37.9,33.1,83,30.06,10.0,Calm,Calm,-,N/A,,Mostly Cloudy,0,2012-11-17 15:53:00
9:53 AM,41.0,35.1,79,30.04,10.0,Calm,Calm,-,N/A,,Mostly Cloudy,0,2012-11-17 16:53:00
10:53 AM,46.0,37.0,71,30.01,10.0,NW,6.9,-,N/A,,Mostly Cloudy,320,2012-11-17 17:53:00
11:53 AM,55.9,35.1,45,29.95,10.0,South,19.6,25.3,N/A,,Scattered Clouds,170,2012-11-17 18:53:00
12:53 PM,54.0,35.1,49,29.94,10.0,South,24.2,32.2,N/A,,Mostly Cloudy,180,2012-11-17 19:53:00
1:53 PM,55.9,36.0,47,29.93,10.0,South,19.6,25.3,N/A,,Mostly Cloudy,190,2012-11-17 20:53:00
2:53 PM,54.0,36.0,51,29.92,10.0,South,18.4,-,N/A,,Mostly Cloudy,180,2012-11-17 21:53:00
3:53 PM,53.1,35.1,50,29.91,10.0,South,18.4,25.3,N/A,,Mostly Cloudy,180,2012-11-17 22:53:00
4:53 PM,51.1,36.0,56,29.90,10.0,South,19.6,26.5,N/A,,Mostly Cloudy,180,2012-11-17 23:53:00
5:53 PM,50.0,37.0,61,29.89,10.0,South,16.1,26.5,N/A,,Mostly Cloudy,190,2012-11-18 00:53:00
6:53 PM,50.0,36.0,59,29.88,10.0,South,23.0,32.2,N/A,,Mostly Cloudy,190,2012-11-18 01:53:00
7:53 PM,50.0,36.0,59,29.87,10.0,South,19.6,28.8,N/A,,Mostly Cloudy,170,2012-11-18 02:53:00
8:53 PM,50.0,37.9,63,29.87,10.0,South,21.9,28.8,N/A,,Scattered Clouds,190,2012-11-18 03:53:00
9:53 PM,48.9,39.0,69,29.86,10.0,South,17.3,-,0.00,Rain,Light Rain,180,2012-11-18 04:53:00
10:53 PM,50.0,37.9,63,29.84,10.0,South,23.0,32.2,0.00,,Overcast,170,2012-11-18 05:53:00
11:53 PM,50.0,37.9,63,29.81,10.0,South,21.9,29.9,N/A,,Overcast,180,2012-11-18 06:53:00